DECAYED

COSMOS 2251 DEB, 34299 (Decayed)

Orbit data source: Space-Track

COSMOS 2251 DEB, 34299 was space debris in LEO originally from a launch on Wed, 16 Jun 1993 UTC launched from the Plesetsk Missile And Space Complex (PKMTR). The debris from Iridium 33, an American commercial communications satellite, has been tracked extensively since its accidental collision with the defunct Russian satellite Cosmos 2251 in 2009. This event, occurring at high speed in low Earth orbit (LEO), generated thousands of pieces of space debris, significantly increasing the risk of further collisions. The Iridium 33 debris cloud has impacted space traffic management and orbital debris mitigation strategies, making it a subject of ongoing study in space situational awareness.

Loading next visibility...
Identifier
34299, 1993-036MV
Orbit
Decayed
Country
Flag of CISCIS
Related business
Manufacturer
Unknown
Mission
Decayed spacecraft
Bus & Motor
Unknown
Mass
Unknown
Launch date (UTC)
1993-06-16 (33 years ago)
Launch vehicle
Unknown
Launch site
Plesetsk Missile And Space Complex (PKMTR)
Object type
Payload
Rocket body
Debris
Shape & HBR
Unknown shape, 0.1 m
Radar Cross Section
Small (<0.1 m²)

Expand to show TLE details & history
Last TLE update: 1 month ago

TLE from 1 month ago
0 COSMOS 2251 DEB
1 34299U 93036MV  25356.92536510  .05990517  25518-0  85546-2 0  9997
2 34299  73.9583 310.8431 0009820 131.3448 228.8646 16.15901291891725
Epoch: 2025-12-22T22:12Z
TLE epoch observation values (Epoch: 2025-12-22T22:12:31.544Z)
Latitude
0.00003°
Longitude
-114.00479°
Altitude
237.798 km
Speed
7.762 km/s
True Right ascension
20h 43m 22s
True Declination
0° 00' 00"
Sunlit
Object was in daylight at epoch
Visualization orbit readout
Latitude
Unknown
Longitude
Unknown
Altitude
Unknown
Speed
Unknown
Apparent Right ascension
Unknown
Apparent Declination
Unknown
Sunlit
N/A
Visualization observer readout
Local Sidereal Time
12:41:16
Azimuth
Unknown
Elevation
Unknown
Doppler factor
Unknown
Orbital elements
Apogee altitude
234.627 km
Perigee altitude
221.653 km
Semi-major axis
6,606.277 km
Eccentricity
0.00098
Inclination
73.9583°
RAAN
310.8431°
Arg. of periapsis
131.3448°
True anomaly
228.77992°
Mean anomaly
228.8646°
Eccentric anomaly
228.82225°
Mean motion
4.04211 °/min
Orbital period
89.06 mins
BSTAR
0.0085546

Documentation

Showing up to 5 results
|